Regional Weather Roundup
Issued by NWS Grand Forks, ND

Home | Current Version | Previous Version | Text Only | Print | Product List | Glossary On
Versions: 1 2 3 4 5 6 7 8 9 10 11 12 13 14 15 16 17 18 19 20 21 22 23 24 25 26 27 28 29 30 31 32 33 34 35 36 37 38 39 40 41 42 43 44 45 46 47 48 49 50
000
ASUS43 KFGF 271910
RWRFGF
PRAIRIE TO PINES  WEATHER ROUNDUP
NATIONAL WEATHER SERVICE EASTERN NORTH DAKOTA/GRAND FORKS ND
200 PM CDT TUE SEP 27 2016

 **SATELLITE DATA USED TO AUGMENT SKY COVER AT AUTOMATED STATIONS**
 *****  WEATHER ACROSS EASTERN NORTH DAKOTA  *****

CITY           SKY/WX    TMP DP  RH WIND       PRES   REMARKS
GRAND FORKS    MOSUNNY   59  45  59 N17G24    29.89F
GRAND FRKS AFB SUNNY     58  44  58 N14       29.89S
DEVILS LAKE    SUNNY     62  34  35 N18       29.93F
FARGO          SUNNY     64  40  41 N17       29.86F
WAHPETON ARPT  CLEAR     63  32  31 N18G26    29.86F
$$

 ***** WEATHER ACROSS CENTRAL AND WESTERN NORTH DAKOTA  *****

CITY           SKY/WX    TMP DP  RH WIND       PRES   REMARKS
BISMARCK       SUNNY     70  40  33 NW9       29.96F
MINOT          SUNNY     67  38  34 CALM      29.95F
JAMESTOWN      SUNNY     64  31  28 NW15      29.91F
MINOT AFB      SUNNY     66  39  36 N5        29.94F
GARRISON         N/A     68  42  38 VRB3      29.96F
WILLISTON      SUNNY     72  51  47 SE6       29.94F
DICKINSON      SUNNY     73  46  38 VRB6      29.95F
HETTINGER      SUNNY     77  47  34 NW12      29.99F
$$

 *****  OTHER AIRPORT OBSERVATIONS IN OUR AREA  *****

CITY           SKY/WX    TMP DP  RH WIND       PRES   REMARKS
WALHALLA       FAIR      57  54  88 N16G24    29.92S
GRAFTON AIRPOR FAIR      55  45  67 N21       29.92S
VALLEY CITY AR FAIR      63  36  36 N18G28    29.92F
CANDO          FAIR      64  30  27 N16       29.95F
CAVALIER APRT  FAIR      55  45  67 N12G21    29.91S
GWINNER        FAIR      66  32  28 NW14G22   29.89F
SHEYENNE NWR     N/A     65  32  29 N13       29.95S
ROLLA          FAIR      63  28  27 NW16      29.95F
 ***** THE ABOVE OBSERVATIONS ARE NON NWS ARE NOT QUALITY
       CONTROLLED AND MAY MIS-REPORT RAIN FOR SNOW...
$$

  *****  WEATHER ACROSS NORTHERN MINNESOTA  *****

CITY           SKY/WX    TMP DP  RH WIND       PRES   REMARKS
FLAG ISLAND    CLOUDY    46  43  87 N20       29.83R
WARROAD        CLOUDY    46  43  87 N8        29.85S
ROSEAU         CLOUDY    52  45  76 N9        29.85R
HALLOCK        CLOUDY    55  45  67 NW16      29.88S
THF RVR FALLS  CLOUDY    51  43  74 NW15      29.87F
BAUDETTE       CLOUDY    48  44  86 NW14      29.82R
WASKISH        LGT RAIN  46  45  93 N9G17     29.81S
CROOKSTON      PTSUNNY   55  43  62 N22G28    29.89S
GREENBUSH NDAW   N/A     52  45  76 N16         N/A
$$
  *****  WEATHER ACROSS CENTRAL AND WEST MINNESOTA  *****

CITY           SKY/WX    TMP DP  RH WIND       PRES   REMARKS
FOSSTON        CLOUDY    48  41  76 NW17G23   29.86S
BEMIDJI        LGT RAIN  47  46  94 NW10G18   29.82S
PARK RAPIDS    CLOUDY    51  40  65 NW17      29.82S
ELBOW LAKE     FAIR      59  39  46 W20G26    29.85F
WADENA         CLOUDY    54  41  62 NW16G23   29.84R
DETROIT LAKES  PTSUNNY   54  43  66 NW18G29   29.87S
MOORHEAD       SUNNY     61  39  44 N17       29.87S
FERGUS FALLS   SUNNY     61  41  48 N16G24    29.87S
MORRIS MN      SUNNY     66  34  30 NW16G31   29.84F
STAPLES        CLOUDY    52  39  62 NW15      29.83R
$$
  *****  WEATHER ELSEWHERE ACROSS MINNESOTA  *****

CITY           SKY/WX    TMP DP  RH WIND       PRES   REMARKS
DULUTH         LGT RAIN  48  45  89 NW14      29.70R
INTRNTL FALLS  CLOUDY    49  46  90 NW13G20   29.76S
ELY            CLOUDY    46  43  87 NW6G17    29.69S
CLOQUET        LGT RAIN  48  45  87 NW9       29.73R
WHEATON        SUNNY     66  37  34 NW16G28   29.88F
BRAINERD       CLOUDY    50  43  77 NW13      29.81R
HIBBING        LGT RAIN  46  43  89 N16       29.74R
ALEXANDRIA     CLOUDY    59  38  45 NW17G24   29.84F
SAINT CLOUD    PTSUNNY   56  43  61 NW15G21   29.80S
MINNEAPOLIS    CLOUDY    58  42  55 NW17      29.78F
$$

  *****  WEATHER ACROSS SOUTH DAKOTA  *****

CITY           SKY/WX    TMP DP  RH WIND       PRES   REMARKS
SIOUX FALLS    MOSUNNY   73  42  32 NW20G29   29.90F
BROOKINGS      SUNNY     67  38  34 NW20G29   29.89F
WATERTOWN      SUNNY     67  39  35 NW17      29.90F
HURON          SUNNY     74  42  31 NW13      29.90F
SISSETON         N/A     68  32  26 NW18G26   29.86F
ABERDEEN       SUNNY     72  36  26 N17G24    29.91F
MITCHELL       SUNNY     76  43  30 NW13G21   29.92F
PIERRE         SUNNY     76  44  32 W12       29.93F
MOBRIDGE       SUNNY     74  44  34 NW9       29.92F
RAPID CITY     SUNNY     80  43  26 N9        30.02F
$$

  *****  SOME WEATHER IN NEARBY STATES *****

CITY           SKY/WX    TMP DP  RH WIND       PRES   REMARKS
GLASGOW MT     SUNNY     73  50  44 SW6       29.93F
GREAT FALLS MT SUNNY     81  41  24 SW20      30.02F
CHEYENNE WY    SUNNY     77  22  13 MISG      30.22F
SCOTTSBLUFF NE SUNNY     78  43  28 W6        30.11F
OMAHA NE       SUNNY     77  42  28 W10       29.94F
DES MOINES IA  MOSUNNY   75  40  28 NW13G24   29.88F
DAVENPORT IA   SUNNY     71  31  22 W18G26    29.82F
CHICAGO IL     MOSUNNY   69  33  26 W23G31    29.75F
EAU CLAIRE WI  LGT RAIN  53  45  74 NW14      29.74S
LA CROSSE WI   CLOUDY    62  43  49 NW14      29.75F
$$

  *****  SOME NATIONAL WEATHER *****

CITY           SKY/WX    TMP DP  RH WIND       PRES   REMARKS
LA GUARDIA NY  PTSUNNY   75  55  49 N5        29.88F
RALEIGH NC     CLOUDY    77  68  73 VRB3      29.91F
ATLANTA GA     PTSUNNY   86  65  49 W8        29.92F
NEW ORLEANS LA PTSUNNY   88  72  58 VRB6      29.93F HX  94
OKLAHOMA CITY  MOSUNNY   78  46  32 S6        30.08F
ALBUQUERQUE NM MOSUNNY   70  33  25 CALM      30.28F
SALT LAKE CITY MOSUNNY   72  48  42 CALM      30.19F
LOS ANGELES CA MOSUNNY   94  38  14 CALM      29.85S
BOISE ID       SUNNY     76  43  30 W5        30.09F
SEATTLE WA     MOSUNNY   66  45  46 N13       30.20S
$$

*** WEATHER ACROSS MANITOBA...SASKATCHEWAN AND ONTARIO ***
                ***ONTARIO***

CITY           SKY/WX    TMP DP  RH WIND       PRES   REMARKS
GERALDTON      CLOUDY    54  48  82 NE12G20   29.60R
THUNDER BAY    CLOUDY    55  48  76 N8        29.59R
SIOUX LOOKOUT  CLOUDY    48  46  93 N6        29.75R
TORONTO        PTSUNNY   70  43  37 S8G22     29.73S
BIG TROUT LK   CLOUDY    54  52  94 NE5       29.84R
PICKLE LAKE    DRIZZLE   52  50  93 N5        29.74R FOG
DRYDEN         CLOUDY    48  46  93 N12G18    29.77R FOG
KENORA         LGT RAIN  46  45  93 N13G21    29.82R
$$
                *** MANITOBA***

CITY           SKY/WX    TMP DP  RH WIND       PRES   REMARKS
BRANDON        SUNNY     64  34  32 NW9       29.94F
DAUPHIN        SUNNY     59  43  55 N8        29.96F
ISLAND LAKE    CLOUDY    46  45  93 N9        29.93R
PILOT MOUND      N/A     59  37  44 NW14G20     N/A
THE PAS        PTSUNNY   54  41  62 N6        29.97F
THOMPSON       CLOUDY    48  39  71 NE6       30.00S
WINNIPEG       PTSUNNY   55  43  62 N18G25    29.89F
LYNN LAKE      CLOUDY    41  39  93 SE7       29.97F
GILLAM         CLOUDY    45  43  93 N15       29.98R
$$
                ***SASKATCHEWAN***

CITY           SKY/WX    TMP DP  RH WIND       PRES   REMARKS
ESTEVAN        MOSUNNY   72  43  35 SE3       29.94F
KINDERSLEY     MOSUNNY   72  45  37 NW16G23   29.84R
LLOYDMINSTER   MOSUNNY   63  43  48 NW24G35   29.92R
PRINCE ALBERT  MOSUNNY   68  43  40 SE12G18   29.85F
REGINA         NOT AVBL
YORKTON        SUNNY     64  41  42 E6        29.94F
N. BATTLEFORD  SUNNY     66  46  48 NW14      29.85R
LA RONGE       NOT AVBL
SASKATOON      MOSUNNY   72  48  43 S15       29.82F
SWIFT CURRENT  SUNNY     79  45  29 W13G21    29.86F
$$
NOTE: THESE ARE AUTOMATED STATIONS WITH LIMITED QUALITY CONTROL
      "FAIR" INDICATES FEW OR NO CLOUDS BELOW 12,000 FEET WITH NO
      SIGNIFICANT WEATHER AND/OR OBSTRUCTIONS TO VISIBILITY.
      SKY/WX - SKY CONDITION AND SIGNIFICANT WEATHER.
      TMP - AIR TEMPERATURE.    DP   - DEWPOINT TEMPERATURE.
      RH  - RELATIVE HUMIDITY.  PRES - PRESSURE.
      HX  - HEAT INDEX.         WCI  - WIND CHILL INDEX.
$



USA.gov is the U.S. government's official web portal to all federal, state and local government web resources and services.